Weather History for Edinburg, TX

Change the Weather History Date:

Sunday, April 28, 2013

  Actual Average (KMFE) Record (KMFE)
Temperature  
Mean Temperature 70 °F 79 °F  
Max Temperature 76 °F 89 °F 103 °F (1984)
Min Temperature 64 °F 69 °F 50 °F (1997)
Degree Days  
Heating Degree Days 0 0  
Month to date heating degree days 3  
Since 1 July heating degree days 574  
Cooling Degree Days 5 14  
Month to date cooling degree days 326  
Year to date cooling degree days 703  
Growing Degree Days 20 (Base 50)    
Moisture  
Dew Point 67 °F    
Average Humidity 83    
Maximum Humidity 92    
Minimum Humidity 59    
Precipitation  
Precipitation 1.40 in 0.06 in 1.25 in (1972)
Month to date precipitation 1.22  
Year to date precipitation 4.41  
Sea Level Pressure  
Sea Level Pressure 29.91 in    
Wind  
Wind Speed 11 mph (East)    
Max Wind Speed 34 mph    
Max Gust Speed 44 mph    
Visibility 6 miles    
Events Rain , Thunderstorm    
T = Trace of Precipitation, MM = Missing Value Source: NWS Daily Summary

Daily Weather History Graph

Daily Weather History Graph

Search for Another Location

Airport:

Trip Planner

Search our weather history database for the weather conditions in past years. The results will help you decide how hot, cold, wet, or windy it might be!

Date:

Astronomy

Apr. 28, 2013 Rise Set
Actual Time 6:56 AM CDT 8:03 PM CDT
Civil Twilight 6:32 AM CDT 8:27 PM CDT
Nautical Twilight 6:04 AM CDT 8:56 PM CDT
Astronomical Twilight 5:34 AM CDT 9:25 PM CDT
Moon 11:25 PM CDT (4/28) 9:25 AM CDT (4/28)
Length of Visible Light 13h 54m
Length of Day
13h 06m
Waning Gibbous, 88% of the Moon is Illuminated
Apr 28
Waning Gibbous
May 2
Last Quarter
May 9
New
May 17
First Quarter
May 24
Full

Hourly Weather History & Observations

Time (CDT) Temp. Dew Point Humidity Pressure Visibility Wind Dir Wind Speed Gust Speed Precip Events Conditions
12:15 AM 76.5 °F 69.1 °F 78% 29.99 in 7.0 mi East 9.2 mph - N/A Rain , Thunderstorm Light Thunderstorms and Rain
12:35 AM 75.4 °F 70.0 °F 83% 30.00 in 7.0 mi ESE 8.1 mph - N/A   Light Drizzle
12:55 AM 75.2 °F 70.2 °F 84% 29.99 in 7.0 mi East 10.4 mph - N/A   Overcast
1:15 AM 75.2 °F 70.3 °F 85% 29.99 in 5.0 mi ENE 11.5 mph - N/A Thunderstorm Haze
1:35 AM 75.2 °F 70.7 °F 86% 29.98 in 5.0 mi ENE 12.7 mph - N/A Thunderstorm Overcast
1:55 AM 74.7 °F 70.3 °F 86% 29.97 in 5.0 mi East 13.8 mph - N/A   Haze
2:15 AM 74.3 °F 70.2 °F 87% 29.97 in 5.0 mi East 11.5 mph - N/A   Scattered Clouds
2:35 AM 74.3 °F 70.2 °F 87% 29.95 in 5.0 mi East 12.7 mph - N/A   Mostly Cloudy
2:55 AM 74.3 °F 70.2 °F 87% 29.88 in 5.0 mi SE 24.2 mph 28.8 mph N/A   Scattered Clouds
3:15 AM 74.3 °F 70.2 °F 87% 29.90 in 5.0 mi ESE 15.0 mph 24.2 mph N/A   Clear
3:35 AM 74.3 °F 70.0 °F 86% 29.91 in 5.0 mi East 16.1 mph 19.6 mph N/A   Mostly Cloudy
3:55 AM 74.3 °F 70.3 °F 87% 29.91 in 5.0 mi ESE 13.8 mph - N/A   Overcast
4:15 AM 74.3 °F 70.3 °F 87% 29.90 in 5.0 mi ESE 11.5 mph - N/A   Scattered Clouds
4:35 AM 73.9 °F 70.0 °F 87% 29.90 in 5.0 mi SE 8.1 mph - N/A   Clear
4:55 AM 74.3 °F 70.3 °F 87% 29.89 in 5.0 mi SE 12.7 mph 17.3 mph N/A   Clear
5:15 AM 74.3 °F 70.2 °F 87% 29.89 in 5.0 mi SE 11.5 mph 17.3 mph N/A   Clear
5:35 AM 74.3 °F 70.3 °F 87% 29.89 in 5.0 mi ESE 10.4 mph - N/A   Clear
5:55 AM 74.3 °F 70.3 °F 87% 29.90 in 5.0 mi ESE 9.2 mph - N/A   Scattered Clouds
6:15 AM 74.3 °F 70.3 °F 87% 29.91 in 4.0 mi ENE 5.8 mph - N/A   Overcast
6:35 AM 74.5 °F 70.7 °F 88% 29.91 in 4.0 mi East 8.1 mph - N/A   Overcast
6:55 AM 74.7 °F 70.5 °F 87% 29.93 in 5.0 mi East 8.1 mph - N/A   Overcast
7:15 AM 74.7 °F 70.2 °F 86% 29.93 in 5.0 mi ENE 6.9 mph - N/A Thunderstorm Haze
7:55 AM 74.7 °F 70.0 °F 85% 29.91 in 4.0 mi ENE 8.1 mph - N/A   Haze
8:15 AM 75.2 °F 70.3 °F 85% 29.92 in 4.0 mi East 10.4 mph - N/A   Haze
8:35 AM 75.4 °F 70.7 °F 85% 29.93 in 4.0 mi East 9.2 mph - N/A   Overcast
8:55 AM 75.7 °F 70.7 °F 84% 29.93 in 4.0 mi East 9.2 mph - N/A   Haze
9:15 AM 75.9 °F 70.7 °F 84% 29.93 in 4.0 mi East 9.2 mph - N/A   Haze
9:35 AM 75.7 °F 70.7 °F 84% 29.92 in 4.0 mi East 9.2 mph - N/A   Haze
9:55 AM 75.7 °F 70.7 °F 84% 29.91 in 4.0 mi East 10.4 mph - N/A   Haze
10:15 AM 76.1 °F 70.9 °F 84% 29.93 in 4.0 mi East 8.1 mph - N/A   Haze
10:35 AM 76.1 °F 71.2 °F 85% 29.94 in 4.0 mi ENE 5.8 mph - N/A   Haze
10:55 AM 76.3 °F 71.2 °F 84% 29.94 in 4.0 mi NE 9.2 mph - N/A Thunderstorm Unknown
11:15 AM 76.1 °F 71.6 °F 86% 29.95 in 3.0 mi NE 10.4 mph - 0.04 in Rain , Thunderstorm Light Thunderstorms and Rain
11:35 AM 75.2 °F 71.6 °F 89% 29.94 in 2.5 mi SE 3.5 mph - 0.34 in Rain , Thunderstorm Heavy Thunderstorms and Rain
11:55 AM 68.4 °F 64.6 °F 88% 29.97 in 1.5 mi NNW 25.3 mph 33.4 mph 0.71 in Rain , Thunderstorm Heavy Thunderstorms and Rain
12:15 PM 64.8 °F 61.9 °F 90% 29.97 in 0.8 mi NNW 24.2 mph 36.8 mph 0.27 in Rain , Thunderstorm Heavy Thunderstorms and Rain
12:35 PM 64.4 °F 61.9 °F 92% 29.97 in 1.5 mi North 24.2 mph 32.2 mph 0.57 in Rain , Thunderstorm Rain
12:55 PM 65.3 °F 62.6 °F 91% 29.93 in 5.0 mi NNE 34.5 mph 43.7 mph 0.62 in Rain , Thunderstorm Light Thunderstorms and Rain
1:15 PM 66.0 °F 63.5 °F 92% 29.94 in 10.0 mi NE 24.2 mph 38.0 mph 0.02 in Rain Light Rain
1:35 PM 67.1 °F 64.2 °F 90% 29.93 in 7.0 mi NE 20.7 mph 25.3 mph 0.02 in   Clear
1:55 PM 72.0 °F 63.0 °F 73% 29.91 in 5.0 mi ENE 13.8 mph 27.6 mph 0.02 in   Haze
2:15 PM 73.0 °F 62.6 °F 70% 29.90 in 5.0 mi ENE 16.1 mph - N/A   Haze
2:35 PM 73.6 °F 63.0 °F 69% 29.89 in 7.0 mi East 11.5 mph - N/A   Scattered Clouds
2:55 PM 74.1 °F 61.3 °F 64% 29.89 in 7.0 mi East 15.0 mph - N/A   Clear
3:15 PM 75.2 °F 59.9 °F 59% 29.88 in 7.0 mi East 9.2 mph - N/A   Clear
3:35 PM 75.9 °F 61.2 °F 60% 29.87 in 7.0 mi ESE 13.8 mph - N/A   Scattered Clouds
3:55 PM 75.6 °F 61.3 °F 61% 29.87 in 7.0 mi ESE 13.8 mph - N/A   Scattered Clouds
4:15 PM 76.1 °F 62.8 °F 63% 29.87 in 7.0 mi ESE 12.7 mph - N/A   Clear
4:35 PM 76.1 °F 63.5 °F 65% 29.87 in 5.0 mi East 13.8 mph - N/A   Haze
4:55 PM 75.2 °F 65.5 °F 72% 29.87 in 7.0 mi ESE 13.8 mph - N/A   Mostly Cloudy
5:15 PM 72.5 °F 66.4 °F 81% 29.86 in 5.0 mi ESE 13.8 mph - 0.03 in Rain Light Rain
5:35 PM 72.1 °F 66.7 °F 83% 29.88 in 10.0 mi East 4.6 mph - 0.03 in Rain Light Rain
5:55 PM 72.3 °F 65.5 °F 79% 29.87 in 10.0 mi East 12.7 mph - 0.03 in   Overcast
6:15 PM 71.8 °F 66.9 °F 85% 29.85 in 10.0 mi ESE 15.0 mph 19.6 mph N/A   Light Drizzle
6:35 PM 71.1 °F 65.5 °F 82% 29.84 in 7.0 mi SE 13.8 mph 19.6 mph N/A   Mostly Cloudy
6:55 PM 70.7 °F 64.9 °F 82% 29.82 in 5.0 mi ESE 16.1 mph 21.9 mph N/A   Haze
7:15 PM 71.2 °F 64.9 °F 80% 29.82 in 5.0 mi ESE 12.7 mph - 0.01 in   Haze
7:35 PM 71.6 °F 65.3 °F 80% 29.84 in 5.0 mi East 9.2 mph - 0.01 in   Haze
7:55 PM 71.6 °F 65.3 °F 80% 29.85 in 7.0 mi East 8.1 mph - 0.01 in   Overcast
8:35 PM 71.6 °F 66.2 °F 83% 29.89 in 7.0 mi North 5.8 mph - N/A   Overcast
8:55 PM 71.4 °F 66.2 °F 84% 29.90 in 7.0 mi NNW 8.1 mph - N/A Rain Light Rain
9:15 PM 71.1 °F 66.2 °F 85% 29.91 in 7.0 mi NNW 8.1 mph - N/A   Overcast
9:55 PM 71.4 °F 65.8 °F 82% 29.94 in 10.0 mi NW 6.9 mph - N/A Rain Light Rain
10:15 PM 71.1 °F 66.2 °F 85% 29.93 in 10.0 mi Calm Calm - N/A Rain Light Rain
10:35 PM 70.3 °F 66.2 °F 87% 29.91 in 10.0 mi ESE 4.6 mph - 0.01 in Rain Rain
10:55 PM 70.3 °F 66.7 °F 88% 29.93 in 7.0 mi Calm Calm - 0.01 in   Light Drizzle
11:15 PM 70.3 °F 66.7 °F 88% 29.94 in 7.0 mi Calm Calm - N/A   Scattered Clouds
11:35 PM 70.7 °F 66.9 °F 88% 29.93 in 5.0 mi NE 3.5 mph - N/A   Scattered Clouds
11:55 PM 70.2 °F 66.6 °F 88% 29.93 in 7.0 mi SE 3.5 mph - N/A Rain Light Rain